Saint Bonnet de Bellac- Haute Vienne - France
Donnes mto: jeudi, 27/10/2011
Date Horaire Temp. E. Hum. E. P.atmo. Pluie Vent Direction Direction Ensoleilleme Solaire P. de rose Temp au vent Rafales
27/10/2011 00:00 12,3 C 60 % 1006,8 hPa 0,0 mm 4,3 km/h (1 Bft) E-SE 112 0 min 0 W/m 4,8 C 12,3 C 7,6 km/h (2 Bft)
27/10/2011 00:05 12,1 C 60 % 1006,7 hPa 0,0 mm 9,4 km/h (2 Bft) E-NE 67 0 min 0 W/m 4,6 C 12,1 C 14,0 km/h (3 Bft)
27/10/2011 00:10 12,1 C 60 % 1006,6 hPa 0,0 mm 5,0 km/h (1 Bft) S-SE 157 0 min 0 W/m 4,6 C 12,1 C 15,5 km/h (3 Bft)
27/10/2011 00:15 12,1 C 60 % 1006,6 hPa 0,0 mm 6,8 km/h (2 Bft) S 180 0 min 0 W/m 4,6 C 12,1 C 12,6 km/h (3 Bft)
27/10/2011 00:20 12,1 C 59 % 1006,5 hPa 0,0 mm 11,2 km/h (2 Bft) SE 135 0 min 0 W/m 4,3 C 12,1 C 18,4 km/h (3 Bft)
27/10/2011 00:25 12,2 C 59 % 1006,5 hPa 0,0 mm 4,7 km/h (1 Bft) E-SE 112 0 min 0 W/m 4,4 C 12,2 C 9,0 km/h (2 Bft)
27/10/2011 00:30 12,2 C 59 % 1006,5 hPa 0,0 mm 5,8 km/h (2 Bft) S-SE 157 0 min 0 W/m 4,4 C 12,2 C 13,3 km/h (3 Bft)
27/10/2011 00:35 12,2 C 59 % 1006,4 hPa 0,0 mm 10,1 km/h (2 Bft) E-SE 112 0 min 0 W/m 4,4 C 12,2 C 12,2 km/h (2 Bft)
27/10/2011 00:40 12,3 C 58 % 1006,5 hPa 0,0 mm 6,8 km/h (2 Bft) E-SE 112 0 min 0 W/m 4,3 C 12,3 C 10,1 km/h (2 Bft)
27/10/2011 00:45 12,3 C 58 % 1006,4 hPa 0,0 mm 7,2 km/h (2 Bft) SE 135 0 min 0 W/m 4,3 C 12,3 C 11,9 km/h (2 Bft)
27/10/2011 00:50 12,3 C 58 % 1006,4 hPa 0,0 mm 16,6 km/h (3 Bft) S-SE 157 0 min 0 W/m 4,3 C 12,3 C 28,4 km/h (5 Bft)
27/10/2011 00:55 12,3 C 58 % 1006,4 hPa 0,0 mm 8,3 km/h (2 Bft) SE 135 0 min 0 W/m 4,3 C 12,3 C 9,4 km/h (2 Bft)
27/10/2011 01:00 12,3 C 57 % 1006,4 hPa 0,0 mm 9,4 km/h (2 Bft) S 180 0 min 0 W/m 4,0 C 12,3 C 14,0 km/h (3 Bft)
27/10/2011 01:05 12,3 C 57 % 1006,4 hPa 0,0 mm 7,6 km/h (2 Bft) S-SE 157 0 min 0 W/m 4,0 C 12,3 C 11,5 km/h (2 Bft)
27/10/2011 01:10 12,3 C 58 % 1006,4 hPa 0,0 mm 5,8 km/h (2 Bft) SO 225 0 min 0 W/m 4,3 C 12,3 C 11,2 km/h (2 Bft)
27/10/2011 01:15 12,2 C 57 % 1006,4 hPa 0,0 mm 10,8 km/h (2 Bft) S-SE 157 0 min 0 W/m 3,9 C 12,2 C 11,9 km/h (2 Bft)
27/10/2011 01:20 12,2 C 57 % 1006,3 hPa 0,0 mm 12,2 km/h (2 Bft) SE 135 0 min 0 W/m 3,9 C 12,2 C 19,1 km/h (3 Bft)
27/10/2011 01:25 12,2 C 57 % 1006,2 hPa 0,0 mm 5,8 km/h (2 Bft) E-SE 112 0 min 0 W/m 3,9 C 12,2 C 9,7 km/h (2 Bft)
27/10/2011 01:30 12,1 C 57 % 1006,1 hPa 0,0 mm 9,7 km/h (2 Bft) S 180 0 min 0 W/m 3,8 C 12,1 C 14,0 km/h (3 Bft)
27/10/2011 01:35 12,1 C 57 % 1006,1 hPa 0,0 mm 10,1 km/h (2 Bft) SE 135 0 min 0 W/m 3,8 C 12,1 C 10,4 km/h (2 Bft)
27/10/2011 01:40 12,1 C 57 % 1006,0 hPa 0,0 mm 10,8 km/h (2 Bft) E-SE 112 0 min 0 W/m 3,8 C 12,1 C 15,5 km/h (3 Bft)
27/10/2011 01:45 12,2 C 57 % 1006,0 hPa 0,0 mm 10,4 km/h (2 Bft) E-SE 112 0 min 0 W/m 3,9 C 12,2 C 12,2 km/h (2 Bft)
27/10/2011 01:50 12,1 C 57 % 1005,9 hPa 0,0 mm 14,0 km/h (3 Bft) E-SE 112 0 min 0 W/m 3,8 C 12,1 C 17,3 km/h (3 Bft)
27/10/2011 01:55 12,1 C 57 % 1006,0 hPa 0,0 mm 13,3 km/h (3 Bft) S-SE 157 0 min 0 W/m 3,8 C 12,1 C 22,3 km/h (4 Bft)
27/10/2011 02:00 12,1 C 57 % 1006,0 hPa 0,0 mm 10,4 km/h (2 Bft) S-SE 157 0 min 0 W/m 3,8 C 12,1 C 15,1 km/h (3 Bft)
27/10/2011 02:05 12,1 C 57 % 1006,0 hPa 0,0 mm 6,8 km/h (2 Bft) SE 135 0 min 0 W/m 3,8 C 12,1 C 10,8 km/h (2 Bft)
27/10/2011 02:10 12,0 C 57 % 1005,9 hPa 0,0 mm 10,1 km/h (2 Bft) SE 135 0 min 0 W/m 3,8 C 12,0 C 19,4 km/h (3 Bft)
27/10/2011 02:15 12,0 C 57 % 1005,9 hPa 0,0 mm 10,4 km/h (2 Bft) S-SE 157 0 min 0 W/m 3,8 C 12,0 C 16,9 km/h (3 Bft)
27/10/2011 02:20 12,0 C 57 % 1005,9 hPa 0,0 mm 9,7 km/h (2 Bft) SE 135 0 min 0 W/m 3,8 C 12,0 C 16,9 km/h (3 Bft)
27/10/2011 02:25 12,1 C 57 % 1005,7 hPa 0,0 mm 7,2 km/h (2 Bft) E 90 0 min 0 W/m 3,8 C 12,1 C 8,6 km/h (2 Bft)
27/10/2011 02:30 12,1 C 57 % 1005,7 hPa 0,0 mm 6,5 km/h (2 Bft) SE 135 0 min 0 W/m 3,8 C 12,1 C 6,5 km/h (2 Bft)
27/10/2011 02:35 12,1 C 57 % 1005,7 hPa 0,0 mm 10,8 km/h (2 Bft) E-SE 112 0 min 0 W/m 3,8 C 12,1 C 11,2 km/h (2 Bft)
27/10/2011 02:40 12,1 C 57 % 1005,7 hPa 0,0 mm 9,4 km/h (2 Bft) E-SE 112 0 min 0 W/m 3,8 C 12,1 C 18,7 km/h (3 Bft)
27/10/2011 02:45 12,1 C 57 % 1005,7 hPa 0,0 mm 7,6 km/h (2 Bft) S 180 0 min 0 W/m 3,8 C 12,1 C 10,4 km/h (2 Bft)
27/10/2011 02:50 12,2 C 57 % 1005,7 hPa 0,0 mm 7,9 km/h (2 Bft) E-SE 112 0 min 0 W/m 3,9 C 12,2 C 10,8 km/h (2 Bft)
27/10/2011 02:55 12,1 C 57 % 1005,7 hPa 0,0 mm 11,5 km/h (2 Bft) S-SE 157 0 min 0 W/m 3,8 C 12,1 C 15,8 km/h (3 Bft)
27/10/2011 03:02 12,1 C 57 % 1005,7 hPa 0,0 mm 13,0 km/h (3 Bft) E 90 0 min 0 W/m 3,8 C 12,1 C 16,6 km/h (3 Bft)
27/10/2011 03:05 12,2 C 58 % 1005,6 hPa 0,0 mm 11,2 km/h (2 Bft) S-SO 202 0 min 0 W/m 4,2 C 12,2 C 18,7 km/h (3 Bft)
27/10/2011 03:10 12,2 C 58 % 1005,6 hPa 0,0 mm 11,5 km/h (2 Bft) S-SO 202 0 min 0 W/m 4,2 C 12,2 C 11,5 km/h (2 Bft)
27/10/2011 03:15 12,1 C 58 % 1005,6 hPa 0,0 mm 10,8 km/h (2 Bft) SE 135 0 min 0 W/m 4,1 C 12,1 C 13,7 km/h (3 Bft)
27/10/2011 03:20 12,1 C 58 % 1005,4 hPa 0,0 mm 14,4 km/h (3 Bft) E-SE 112 0 min 0 W/m 4,1 C 12,1 C 14,4 km/h (3 Bft)
27/10/2011 03:25 12,2 C 58 % 1005,5 hPa 0,0 mm 10,1 km/h (2 Bft) SE 135 0 min 0 W/m 4,2 C 12,2 C 13,3 km/h (3 Bft)
27/10/2011 03:30 12,2 C 59 % 1005,3 hPa 0,0 mm 11,5 km/h (2 Bft) S-SO 202 0 min 0 W/m 4,4 C 12,2 C 20,9 km/h (4 Bft)
27/10/2011 03:35 12,3 C 59 % 1005,4 hPa 0,0 mm 15,1 km/h (3 Bft) E-SE 112 0 min 0 W/m 4,5 C 12,3 C 21,2 km/h (4 Bft)
27/10/2011 03:40 12,3 C 59 % 1005,3 hPa 0,0 mm 9,4 km/h (2 Bft) S 180 0 min 0 W/m 4,5 C 12,3 C 9,4 km/h (2 Bft)
27/10/2011 03:45 12,4 C 59 % 1005,3 hPa 0,0 mm 10,8 km/h (2 Bft) SE 135 0 min 0 W/m 4,6 C 12,4 C 21,2 km/h (4 Bft)
27/10/2011 03:50 12,4 C 60 % 1005,4 hPa 0,0 mm 15,1 km/h (3 Bft) S-SE 157 0 min 0 W/m 4,9 C 12,4 C 22,0 km/h (4 Bft)
27/10/2011 03:55 12,5 C 60 % 1005,5 hPa 0,0 mm 12,2 km/h (2 Bft) S-SE 157 0 min 0 W/m 5,0 C 12,5 C 16,2 km/h (3 Bft)
27/10/2011 04:00 12,5 C 60 % 1005,4 hPa 0,0 mm 14,0 km/h (3 Bft) S-SE 157 0 min 0 W/m 5,0 C 12,5 C 19,8 km/h (3 Bft)
27/10/2011 04:05 12,6 C 61 % 1005,3 hPa 0,0 mm 12,2 km/h (2 Bft) S 180 0 min 0 W/m 5,3 C 12,6 C 16,9 km/h (3 Bft)
27/10/2011 04:10 12,6 C 61 % 1005,3 hPa 0,0 mm 14,0 km/h (3 Bft) S-SE 157 0 min 0 W/m 5,3 C 12,6 C 19,1 km/h (3 Bft)
27/10/2011 04:15 12,8 C 61 % 1005,2 hPa 0,0 mm 6,8 km/h (2 Bft) S-SE 157 0 min 0 W/m 5,5 C 12,8 C 7,6 km/h (2 Bft)
27/10/2011 04:20 12,8 C 62 % 1005,2 hPa 0,0 mm 10,1 km/h (2 Bft) S-SE 157 0 min 0 W/m 5,7 C 12,8 C 10,4 km/h (2 Bft)
27/10/2011 04:25 12,8 C 62 % 1005,1 hPa 0,0 mm 8,3 km/h (2 Bft) E-SE 112 0 min 0 W/m 5,7 C 12,8 C 11,5 km/h (2 Bft)
27/10/2011 04:30 12,8 C 63 % 1005,0 hPa 0,0 mm 16,9 km/h (3 Bft) E 90 0 min 0 W/m 5,9 C 12,8 C 23,8 km/h (4 Bft)
27/10/2011 04:35 12,8 C 63 % 1005,0 hPa 0,0 mm 8,3 km/h (2 Bft) SE 135 0 min 0 W/m 5,9 C 12,8 C 14,4 km/h (3 Bft)
27/10/2011 04:40 12,9 C 64 % 1004,9 hPa 0,0 mm 11,5 km/h (2 Bft) E-NE 67 0 min 0 W/m 6,3 C 12,9 C 17,3 km/h (3 Bft)
27/10/2011 04:45 12,9 C 64 % 1004,7 hPa 0,0 mm 16,9 km/h (3 Bft) E 90 0 min 0 W/m 6,3 C 12,9 C 16,9 km/h (3 Bft)
27/10/2011 04:50 13,0 C 64 % 1004,6 hPa 0,0 mm 19,4 km/h (3 Bft) S-SE 157 0 min 0 W/m 6,4 C 13,0 C 28,4 km/h (5 Bft)
27/10/2011 04:55 13,1 C 64 % 1004,4 hPa 0,0 mm 20,2 km/h (4 Bft) SE 135 0 min 0 W/m 6,4 C 13,1 C 26,6 km/h (4 Bft)
27/10/2011 05:00 13,2 C 64 % 1004,3 hPa 0,0 mm 10,1 km/h (2 Bft) S 180 0 min 0 W/m 6,5 C 13,2 C 12,6 km/h (3 Bft)
27/10/2011 05:05 13,3 C 64 % 1004,3 hPa 0,0 mm 16,2 km/h (3 Bft) SE 135 0 min 0 W/m 6,6 C 13,3 C 24,8 km/h (4 Bft)
27/10/2011 05:10 13,3 C 64 % 1004,3 hPa 0,0 mm 12,6 km/h (3 Bft) S 180 0 min 0 W/m 6,6 C 13,3 C 12,6 km/h (3 Bft)
27/10/2011 05:15 13,3 C 64 % 1004,3 hPa 0,0 mm 16,9 km/h (3 Bft) E-SE 112 0 min 0 W/m 6,6 C 13,3 C 25,9 km/h (4 Bft)
27/10/2011 05:20 13,3 C 64 % 1004,1 hPa 0,0 mm 11,9 km/h (2 Bft) S-SE 157 0 min 0 W/m 6,6 C 13,3 C 11,9 km/h (2 Bft)
27/10/2011 05:25 13,3 C 64 % 1004,2 hPa 0,0 mm 8,3 km/h (2 Bft) S 180 0 min 0 W/m 6,6 C 13,3 C 8,3 km/h (2 Bft)
27/10/2011 05:30 13,3 C 65 % 1004,2 hPa 0,0 mm 14,4 km/h (3 Bft) S 180 0 min 0 W/m 6,9 C 13,3 C 17,3 km/h (3 Bft)
27/10/2011 05:35 13,3 C 65 % 1004,3 hPa 0,0 mm 9,7 km/h (2 Bft) SE 135 0 min 0 W/m 6,9 C 13,3 C 16,2 km/h (3 Bft)
27/10/2011 05:40 13,4 C 65 % 1004,4 hPa 0,0 mm 10,8 km/h (2 Bft) S 180 0 min 0 W/m 7,0 C 13,4 C 11,5 km/h (2 Bft)
27/10/2011 05:45 13,4 C 66 % 1004,5 hPa 0,0 mm 7,9 km/h (2 Bft) SE 135 0 min 0 W/m 7,2 C 13,4 C 13,3 km/h (3 Bft)
27/10/2011 05:50 13,4 C 66 % 1004,7 hPa 0,0 mm 7,2 km/h (2 Bft) S-SE 157 0 min 0 W/m 7,2 C 13,4 C 24,8 km/h (4 Bft)
27/10/2011 05:55 13,5 C 66 % 1004,7 hPa 0,0 mm 6,8 km/h (2 Bft) SE 135 0 min 0 W/m 7,3 C 13,5 C 15,1 km/h (3 Bft)
27/10/2011 06:00 13,6 C 66 % 1004,9 hPa 0,0 mm 13,3 km/h (3 Bft) S-SE 157 0 min 0 W/m 7,4 C 13,6 C 29,2 km/h (5 Bft)
27/10/2011 06:05 13,6 C 66 % 1004,8 hPa 0,0 mm 9,7 km/h (2 Bft) S-SE 157 0 min 0 W/m 7,4 C 13,6 C 9,7 km/h (2 Bft)
27/10/2011 06:10 13,7 C 67 % 1004,9 hPa 0,0 mm 9,4 km/h (2 Bft) S 180 0 min 0 W/m 7,7 C 13,7 C 10,4 km/h (2 Bft)
27/10/2011 06:15 13,8 C 67 % 1004,9 hPa 0,0 mm 9,0 km/h (2 Bft) S-SE 157 0 min 0 W/m 7,8 C 13,8 C 16,2 km/h (3 Bft)
27/10/2011 06:20 13,8 C 67 % 1004,8 hPa 0,0 mm 11,2 km/h (2 Bft) E-NE 67 0 min 0 W/m 7,8 C 13,8 C 16,2 km/h (3 Bft)
27/10/2011 06:25 13,8 C 67 % 1004,6 hPa 0,0 mm 9,4 km/h (2 Bft) SE 135 0 min 0 W/m 7,8 C 13,8 C 13,0 km/h (3 Bft)
27/10/2011 06:30 13,8 C 67 % 1004,6 hPa 0,0 mm 10,8 km/h (2 Bft) S-SO 202 0 min 0 W/m 7,8 C 13,8 C 19,4 km/h (3 Bft)
27/10/2011 06:35 13,9 C 67 % 1004,6 hPa 0,0 mm 10,4 km/h (2 Bft) S 180 0 min 0 W/m 7,9 C 13,9 C 18,7 km/h (3 Bft)
27/10/2011 06:40 13,9 C 68 % 1004,7 hPa 0,0 mm 11,2 km/h (2 Bft) S-SE 157 0 min 0 W/m 8,1 C 13,9 C 11,9 km/h (2 Bft)
27/10/2011 06:45 14,0 C 68 % 1004,7 hPa 0,0 mm 9,0 km/h (2 Bft) S-SE 157 0 min 0 W/m 8,2 C 14,0 C 14,0 km/h (3 Bft)
27/10/2011 06:50 14,1 C 68 % 1004,8 hPa 0,0 mm 10,1 km/h (2 Bft) SE 135 0 min 0 W/m 8,3 C 14,1 C 11,9 km/h (2 Bft)
27/10/2011 06:55 14,1 C 68 % 1004,9 hPa 0,0 mm 11,2 km/h (2 Bft) S 180 0 min 0 W/m 8,3 C 14,1 C 22,3 km/h (4 Bft)
27/10/2011 07:00 14,1 C 68 % 1004,9 hPa 0,0 mm 7,9 km/h (2 Bft) S-SE 157 0 min 0 W/m 8,3 C 14,1 C 16,2 km/h (3 Bft)
27/10/2011 07:05 14,1 C 68 % 1004,9 hPa 0,0 mm 8,6 km/h (2 Bft) S 180 0 min 0 W/m 8,3 C 14,1 C 11,2 km/h (2 Bft)
27/10/2011 07:10 14,1 C 68 % 1004,9 hPa 0,0 mm 6,5 km/h (2 Bft) SE 135 0 min 0 W/m 8,3 C 14,1 C 9,4 km/h (2 Bft)
27/10/2011 07:15 14,2 C 68 % 1004,9 hPa 0,0 mm 11,2 km/h (2 Bft) SE 135 0 min 0 W/m 8,4 C 14,2 C 16,2 km/h (3 Bft)
27/10/2011 07:20 14,1 C 68 % 1003,9 hPa 0,0 mm 6,8 km/h (2 Bft) SE 135 0 min 0 W/m 8,3 C 14,1 C 9,7 km/h (2 Bft)
27/10/2011 07:25 14,2 C 68 % 1005,0 hPa 0,0 mm 7,2 km/h (2 Bft) S-SO 202 0 min 0 W/m 8,4 C 14,2 C 12,6 km/h (3 Bft)
27/10/2011 07:30 14,2 C 68 % 1005,0 hPa 0,0 mm 6,8 km/h (2 Bft) SE 135 0 min 0 W/m 8,4 C 14,2 C 10,8 km/h (2 Bft)
27/10/2011 07:35 14,2 C 68 % 1005,0 hPa 0,0 mm 12,2 km/h (2 Bft) E-SE 112 0 min 0 W/m 8,4 C 14,2 C 14,8 km/h (3 Bft)
27/10/2011 07:40 14,2 C 68 % 1004,9 hPa 0,0 mm 4,7 km/h (1 Bft) S-SE 157 0 min 0 W/m 8,4 C 14,2 C 4,7 km/h (1 Bft)
27/10/2011 07:45 14,2 C 68 % 1004,9 hPa 0,0 mm 11,5 km/h (2 Bft) SE 135 0 min 0 W/m 8,4 C 14,2 C 20,5 km/h (4 Bft)
27/10/2011 07:50 14,3 C 68 % 1005,0 hPa 0,0 mm 11,5 km/h (2 Bft) N 360 0 min 0 W/m 8,5 C 14,3 C 11,5 km/h (2 Bft)
27/10/2011 07:55 14,3 C 68 % 1005,0 hPa 0,0 mm 13,7 km/h (3 Bft) SE 135 0 min 0 W/m 8,5 C 14,3 C 13,7 km/h (3 Bft)
27/10/2011 08:00 14,3 C 68 % 1004,9 hPa 0,0 mm 6,1 km/h (2 Bft) S 180 0 min 0 W/m 8,5 C 14,3 C 8,6 km/h (2 Bft)
27/10/2011 08:05 14,2 C 69 % 1005,0 hPa 0,0 mm 9,4 km/h (2 Bft) SE 135 0 min 0 W/m 8,6 C 14,2 C 11,9 km/h (2 Bft)
27/10/2011 08:10 14,3 C 69 % 1004,9 hPa 0,0 mm 7,2 km/h (2 Bft) SE 135 0 min 0 W/m 8,7 C 14,3 C 7,2 km/h (2 Bft)
27/10/2011 08:15 14,3 C 69 % 1004,8 hPa 0,0 mm 8,3 km/h (2 Bft) E-NE 67 0 min 0 W/m 8,7 C 14,3 C 10,8 km/h (2 Bft)
27/10/2011 08:20 14,3 C 68 % 1004,8 hPa 0,0 mm 11,9 km/h (2 Bft) S-SE 157 0 min 0 W/m 8,5 C 14,3 C 15,5 km/h (3 Bft)
27/10/2011 08:25 14,4 C 69 % 1004,9 hPa 0,0 mm 8,3 km/h (2 Bft) S-SE 157 0 min 0 W/m 8,8 C 14,4 C 13,0 km/h (3 Bft)
27/10/2011 08:30 14,4 C 69 % 1004,8 hPa 0,0 mm 12,2 km/h (2 Bft) SE 135 0 min 0 W/m 8,8 C 14,4 C 15,8 km/h (3 Bft)
27/10/2011 08:35 14,4 C 69 % 1004,7 hPa 0,0 mm 8,3 km/h (2 Bft) E 90 0 min 0 W/m 8,8 C 14,4 C 10,8 km/h (2 Bft)
27/10/2011 08:40 14,5 C 68 % 1004,8 hPa 0,0 mm 12,6 km/h (3 Bft) SE 135 0 min 0 W/m 8,7 C 14,5 C 16,6 km/h (3 Bft)
27/10/2011 08:45 14,5 C 69 % 1004,9 hPa 0,0 mm 5,8 km/h (2 Bft) E-SE 112 0 min 0 W/m 8,9 C 14,5 C 11,2 km/h (2 Bft)
27/10/2011 08:50 14,5 C 69 % 1005,0 hPa 0,0 mm 9,0 km/h (2 Bft) E-SE 112 0 min 0 W/m 8,9 C 14,5 C 9,4 km/h (2 Bft)
27/10/2011 08:55 14,6 C 68 % 1005,0 hPa 0,0 mm 7,9 km/h (2 Bft) E-SE 112 0 min 0 W/m 8,8 C 14,6 C 19,1 km/h (3 Bft)
27/10/2011 09:00 14,6 C 68 % 1005,0 hPa 0,0 mm 7,2 km/h (2 Bft) SE 135 0 min 0 W/m 8,8 C 14,6 C 11,2 km/h (2 Bft)
27/10/2011 09:05 14,6 C 68 % 1005,1 hPa 0,0 mm 7,2 km/h (2 Bft) S-SE 157 0 min 0 W/m 8,8 C 14,6 C 11,9 km/h (2 Bft)
27/10/2011 09:10 14,8 C 68 % 1005,0 hPa 0,0 mm 6,8 km/h (2 Bft) SE 135 0 min 0 W/m 9,0 C 14,8 C 14,0 km/h (3 Bft)
27/10/2011 09:15 14,8 C 68 % 1005,2 hPa 0,0 mm 10,4 km/h (2 Bft) E 90 0 min 0 W/m 9,0 C 14,8 C 15,1 km/h (3 Bft)
27/10/2011 09:20 14,9 C 68 % 1005,2 hPa 0,0 mm 6,8 km/h (2 Bft) E-NE 67 0 min 0 W/m 9,0 C 14,9 C 8,6 km/h (2 Bft)
27/10/2011 09:25 14,9 C 67 % 1005,2 hPa 0,0 mm 10,8 km/h (2 Bft) SE 135 0 min 0 W/m 8,8 C 14,9 C 10,8 km/h (2 Bft)
27/10/2011 09:30 15,1 C 67 % 1005,1 hPa 0,0 mm 14,4 km/h (3 Bft) E-SE 112 0 min 0 W/m 9,0 C 15,1 C 17,3 km/h (3 Bft)
27/10/2011 09:35 15,1 C 67 % 1005,2 hPa 0,0 mm 11,5 km/h (2 Bft) S-SE 157 0 min 0 W/m 9,0 C 15,1 C 15,1 km/h (3 Bft)
27/10/2011 09:40 15,2 C 67 % 1005,2 hPa 0,0 mm 8,6 km/h (2 Bft) E-SE 112 0 min 0 W/m 9,1 C 15,2 C 9,0 km/h (2 Bft)
27/10/2011 09:45 15,2 C 66 % 1005,3 hPa 0,0 mm 10,4 km/h (2 Bft) SE 135 0 min 0 W/m 8,9 C 15,2 C 10,8 km/h (2 Bft)
27/10/2011 09:50 15,3 C 66 % 1005,4 hPa 0,0 mm 8,6 km/h (2 Bft) S-SE 157 0 min 0 W/m 9,0 C 15,3 C 16,6 km/h (3 Bft)
27/10/2011 09:55 15,4 C 66 % 1005,3 hPa 0,0 mm 9,0 km/h (2 Bft) O 270 0 min 0 W/m 9,1 C 15,4 C 15,8 km/h (3 Bft)
27/10/2011 10:00 15,4 C 66 % 1005,3 hPa 0,0 mm 14,8 km/h (3 Bft) SO 225 0 min 0 W/m 9,1 C 15,4 C 28,8 km/h (5 Bft)
27/10/2011 10:05 15,4 C 66 % 1005,3 hPa 0,0 mm 10,8 km/h (2 Bft) E-SE 112 0 min 0 W/m 9,1 C 15,4 C 10,8 km/h (2 Bft)
27/10/2011 10:10 15,5 C 66 % 1005,4 hPa 0,0 mm 9,7 km/h (2 Bft) SO 225 0 min 0 W/m 9,2 C 15,5 C 17,3 km/h (3 Bft)
27/10/2011 10:15 15,5 C 66 % 1005,5 hPa 0,0 mm 12,2 km/h (2 Bft) S 180 0 min 0 W/m 9,2 C 15,5 C 20,5 km/h (4 Bft)
27/10/2011 10:20 15,6 C 66 % 1005,5 hPa 0,0 mm 11,9 km/h (2 Bft) S-SE 157 0 min 0 W/m 9,3 C 15,6 C 22,3 km/h (4 Bft)
27/10/2011 10:25 15,6 C 66 % 1005,5 hPa 0,0 mm 13,7 km/h (3 Bft) S-SE 157 0 min 0 W/m 9,3 C 15,6 C 17,6 km/h (3 Bft)
27/10/2011 10:30 15,7 C 66 % 1005,7 hPa 0,0 mm 11,5 km/h (2 Bft) S 180 0 min 0 W/m 9,4 C 15,7 C 11,5 km/h (2 Bft)
27/10/2011 10:35 15,8 C 66 % 1005,7 hPa 0,0 mm 13,0 km/h (3 Bft) S-SE 157 0 min 0 W/m 9,5 C 15,8 C 22,0 km/h (4 Bft)
27/10/2011 10:40 15,8 C 66 % 1005,8 hPa 0,0 mm 11,9 km/h (2 Bft) S 180 0 min 0 W/m 9,5 C 15,8 C 18,0 km/h (3 Bft)
27/10/2011 10:45 15,8 C 66 % 1005,8 hPa 0,0 mm 7,9 km/h (2 Bft) S-SE 157 0 min 0 W/m 9,5 C 15,8 C 14,4 km/h (3 Bft)
27/10/2011 10:50 15,8 C 66 % 1005,8 hPa 0,0 mm 10,1 km/h (2 Bft) S 180 0 min 0 W/m 9,5 C 15,8 C 18,4 km/h (3 Bft)
27/10/2011 10:55 15,9 C 66 % 1005,9 hPa 0,0 mm 10,8 km/h (2 Bft) S-SO 202 0 min 0 W/m 9,6 C 15,9 C 18,7 km/h (3 Bft)
27/10/2011 11:00 15,9 C 66 % 1005,8 hPa 0,0 mm 6,5 km/h (2 Bft) S-SO 202 0 min 0 W/m 9,6 C 15,9 C 7,6 km/h (2 Bft)
27/10/2011 11:05 16,1 C 66 % 1005,9 hPa 0,0 mm 8,3 km/h (2 Bft) S 180 0 min 0 W/m 9,7 C 16,1 C 13,7 km/h (3 Bft)
27/10/2011 11:10 16,2 C 67 % 1005,9 hPa 0,0 mm 3,2 km/h (1 Bft) SE 135 0 min 0 W/m 10,1 C 16,2 C 8,3 km/h (2 Bft)
27/10/2011 11:15 16,2 C 66 % 1005,9 hPa 0,0 mm 8,3 km/h (2 Bft) E-SE 112 0 min 0 W/m 9,8 C 16,2 C 8,3 km/h (2 Bft)
27/10/2011 11:20 16,3 C 67 % 1006,0 hPa 0,0 mm 7,2 km/h (2 Bft) S-SE 157 0 min 0 W/m 10,2 C 16,3 C 10,4 km/h (2 Bft)
27/10/2011 11:25 16,3 C 67 % 1006,0 hPa 0,0 mm 4,3 km/h (1 Bft) SE 135 0 min 0 W/m 10,2 C 16,3 C 15,1 km/h (3 Bft)
27/10/2011 11:30 16,3 C 66 % 1006,0 hPa 0,0 mm 12,2 km/h (2 Bft) S 180 0 min 0 W/m 9,9 C 16,3 C 21,2 km/h (4 Bft)
27/10/2011 11:35 16,4 C 66 % 1006,2 hPa 0,0 mm 17,3 km/h (3 Bft) S-SE 157 0 min 0 W/m 10,0 C 16,4 C 24,8 km/h (4 Bft)
27/10/2011 11:40 16,4 C 66 % 1006,3 hPa 0,0 mm 15,1 km/h (3 Bft) S-SO 202 0 min 0 W/m 10,0 C 16,4 C 23,4 km/h (4 Bft)
27/10/2011 11:45 16,5 C 66 % 1006,4 hPa 0,0 mm 10,8 km/h (2 Bft) S-SE 157 0 min 0 W/m 10,1 C 16,5 C 10,8 km/h (2 Bft)
27/10/2011 11:50 16,5 C 66 % 1006,4 hPa 0,0 mm 9,4 km/h (2 Bft) S-SE 157 0 min 0 W/m 10,1 C 16,5 C 9,4 km/h (2 Bft)
27/10/2011 11:55 16,5 C 66 % 1006,3 hPa 0,0 mm 6,8 km/h (2 Bft) N-NE 22 0 min 0 W/m 10,1 C 16,5 C 14,0 km/h (3 Bft)
27/10/2011 12:00 16,5 C 66 % 1006,3 hPa 0,0 mm 8,3 km/h (2 Bft) S-SE 157 0 min 0 W/m 10,1 C 16,5 C 12,6 km/h (3 Bft)
27/10/2011 12:05 16,5 C 66 % 1006,4 hPa 0,0 mm 11,5 km/h (2 Bft) S-SE 157 0 min 0 W/m 10,1 C 16,5 C 13,7 km/h (3 Bft)
27/10/2011 12:10 16,5 C 67 % 1006,5 hPa 0,0 mm 6,5 km/h (2 Bft) S-SE 157 0 min 0 W/m 10,4 C 16,5 C 11,2 km/h (2 Bft)
27/10/2011 12:15 16,6 C 67 % 1006,5 hPa 0,0 mm 8,6 km/h (2 Bft) S-SE 157 0 min 0 W/m 10,4 C 16,6 C 9,4 km/h (2 Bft)
27/10/2011 12:20 16,6 C 67 % 1006,6 hPa 0,0 mm 6,1 km/h (2 Bft) S 180 0 min 0 W/m 10,4 C 16,6 C 8,3 km/h (2 Bft)
27/10/2011 12:25 16,6 C 67 % 1006,6 hPa 0,0 mm 6,5 km/h (2 Bft) S-SE 157 0 min 0 W/m 10,4 C 16,6 C 9,4 km/h (2 Bft)
27/10/2011 12:30 16,6 C 67 % 1006,6 hPa 0,0 mm 4,3 km/h (1 Bft) S-SE 157 0 min 0 W/m 10,4 C 16,6 C 7,2 km/h (2 Bft)
27/10/2011 12:35 16,6 C 67 % 1006,7 hPa 0,0 mm 6,5 km/h (2 Bft) SE 135 0 min 0 W/m 10,4 C 16,6 C 16,2 km/h (3 Bft)
27/10/2011 12:40 16,6 C 67 % 1006,7 hPa 0,0 mm 9,0 km/h (2 Bft) S-SE 157 0 min 0 W/m 10,4 C 16,6 C 9,0 km/h (2 Bft)
27/10/2011 12:45 16,8 C 67 % 1006,7 hPa 0,0 mm 5,0 km/h (1 Bft) S-SE 157 0 min 0 W/m 10,6 C 16,8 C 7,2 km/h (2 Bft)
27/10/2011 12:50 16,8 C 67 % 1006,7 hPa 0,0 mm 3,6 km/h (1 Bft) SE 135 0 min 0 W/m 10,6 C 16,8 C 4,3 km/h (1 Bft)
27/10/2011 12:55 16,8 C 67 % 1006,7 hPa 0,0 mm 3,6 km/h (1 Bft) S 180 0 min 0 W/m 10,6 C 16,8 C 6,1 km/h (2 Bft)
27/10/2011 13:00 16,8 C 66 % 1006,7 hPa 0,0 mm 6,8 km/h (2 Bft) S 180 0 min 0 W/m 10,4 C 16,8 C 10,8 km/h (2 Bft)
27/10/2011 13:05 16,8 C 66 % 1006,8 hPa 0,0 mm 8,3 km/h (2 Bft) O-SO 247 0 min 0 W/m 10,4 C 16,8 C 12,6 km/h (3 Bft)
27/10/2011 13:10 16,9 C 66 % 1006,9 hPa 0,0 mm 5,4 km/h (2 Bft) S-SE 157 0 min 0 W/m 10,5 C 16,9 C 8,3 km/h (2 Bft)
27/10/2011 13:15 16,9 C 66 % 1007,0 hPa 0,0 mm 5,8 km/h (2 Bft) S 180 0 min 0 W/m 10,5 C 16,9 C 8,3 km/h (2 Bft)
27/10/2011 13:20 17,1 C 66 % 1007,0 hPa 0,0 mm 11,2 km/h (2 Bft) S-SO 202 0 min 0 W/m 10,7 C 17,1 C 16,2 km/h (3 Bft)
27/10/2011 13:25 17,1 C 66 % 1006,9 hPa 0,0 mm 4,3 km/h (1 Bft) S 180 0 min 0 W/m 10,7 C 17,1 C 4,3 km/h (1 Bft)
27/10/2011 13:30 17,1 C 65 % 1007,0 hPa 0,0 mm 6,5 km/h (2 Bft) SE 135 0 min 0 W/m 10,5 C 17,1 C 12,2 km/h (2 Bft)
27/10/2011 13:35 17,2 C 66 % 1007,0 hPa 0,0 mm 7,6 km/h (2 Bft) SO 225 0 min 0 W/m 10,8 C 17,2 C 10,1 km/h (2 Bft)
27/10/2011 13:40 17,3 C 65 % 1007,0 hPa 0,0 mm 6,8 km/h (2 Bft) S 180 0 min 0 W/m 10,7 C 17,3 C 10,4 km/h (2 Bft)
27/10/2011 13:45 17,4 C 65 % 1006,9 hPa 0,0 mm 7,9 km/h (2 Bft) S 180 0 min 0 W/m 10,8 C 17,4 C 11,5 km/h (2 Bft)
27/10/2011 13:50 17,4 C 65 % 1006,9 hPa 0,0 mm 4,0 km/h (1 Bft) S-SE 157 0 min 0 W/m 10,8 C 17,4 C 6,1 km/h (2 Bft)
27/10/2011 13:55 17,5 C 65 % 1006,9 hPa 0,0 mm 7,9 km/h (2 Bft) S-SO 202 0 min 0 W/m 10,8 C 17,5 C 13,0 km/h (3 Bft)
27/10/2011 14:00 17,6 C 65 % 1006,9 hPa 0,0 mm 7,9 km/h (2 Bft) S 180 0 min 0 W/m 10,9 C 17,6 C 8,6 km/h (2 Bft)
27/10/2011 14:05 17,7 C 65 % 1006,9 hPa 0,0 mm 9,7 km/h (2 Bft) S 180 0 min 0 W/m 11,0 C 17,7 C 19,1 km/h (3 Bft)
27/10/2011 14:10 17,8 C 65 % 1006,9 hPa 0,0 mm 8,6 km/h (2 Bft) S-SE 157 0 min 0 W/m 11,1 C 17,8 C 8,6 km/h (2 Bft)
27/10/2011 14:15 17,8 C 65 % 1007,0 hPa 0,0 mm 11,5 km/h (2 Bft) S-SE 157 0 min 0 W/m 11,1 C 17,8 C 16,2 km/h (3 Bft)
27/10/2011 14:20 17,8 C 65 % 1007,2 hPa 0,0 mm 1,8 km/h (1 Bft) S-SE 157 0 min 0 W/m 11,1 C 17,8 C 4,3 km/h (1 Bft)
27/10/2011 14:25 17,8 C 65 % 1007,2 hPa 0,0 mm 4,7 km/h (1 Bft) S 180 0 min 0 W/m 11,1 C 17,8 C 8,3 km/h (2 Bft)
27/10/2011 14:30 17,7 C 65 % 1007,2 hPa 0,0 mm 4,3 km/h (1 Bft) S-SO 202 0 min 0 W/m 11,0 C 17,7 C 5,8 km/h (2 Bft)
27/10/2011 14:35 17,7 C 65 % 1007,3 hPa 0,0 mm 6,1 km/h (2 Bft) S-SE 157 0 min 0 W/m 11,0 C 17,7 C 9,0 km/h (2 Bft)
27/10/2011 14:40 17,7 C 65 % 1007,3 hPa 0,0 mm 7,6 km/h (2 Bft) S 180 0 min 0 W/m 11,0 C 17,7 C 10,1 km/h (2 Bft)
27/10/2011 14:45 17,7 C 66 % 1007,4 hPa 0,0 mm 5,0 km/h (1 Bft) S-SO 202 0 min 0 W/m 11,3 C 17,7 C 9,0 km/h (2 Bft)
27/10/2011 14:50 17,7 C 66 % 1007,4 hPa 0,0 mm 7,6 km/h (2 Bft) S 180 0 min 0 W/m 11,3 C 17,7 C 12,2 km/h (2 Bft)
27/10/2011 14:55 17,6 C 66 % 1007,4 hPa 0,0 mm 5,4 km/h (2 Bft) S 180 0 min 0 W/m 11,2 C 17,6 C 7,2 km/h (2 Bft)
27/10/2011 15:00 17,6 C 66 % 1007,5 hPa 0,0 mm 4,3 km/h (1 Bft) O-SO 247 0 min 0 W/m 11,2 C 17,6 C 7,9 km/h (2 Bft)
27/10/2011 15:05 17,6 C 67 % 1007,4 hPa 0,0 mm 5,4 km/h (2 Bft) S 180 0 min 0 W/m 11,4 C 17,6 C 9,7 km/h (2 Bft)
27/10/2011 15:10 17,6 C 67 % 1007,4 hPa 0,0 mm 2,5 km/h (1 Bft) SO 225 0 min 0 W/m 11,4 C 17,6 C 7,6 km/h (2 Bft)
27/10/2011 15:15 17,6 C 67 % 1007,3 hPa 0,0 mm 1,4 km/h (1 Bft) S 180 0 min 0 W/m 11,4 C 17,6 C 3,6 km/h (1 Bft)
27/10/2011 15:20 17,6 C 67 % 1007,3 hPa 0,0 mm 5,8 km/h (2 Bft) S-SO 202 0 min 0 W/m 11,4 C 17,6 C 9,0 km/h (2 Bft)
27/10/2011 15:25 17,6 C 67 % 1006,4 hPa 0,0 mm 5,4 km/h (2 Bft) S-SO 202 0 min 0 W/m 11,4 C 17,6 C 7,6 km/h (2 Bft)
27/10/2011 15:30 17,6 C 67 % 1006,4 hPa 0,0 mm 0,4 km/h (0 Bft) S-SO 202 0 min 0 W/m 11,4 C 17,6 C 3,6 km/h (1 Bft)
27/10/2011 15:35 17,6 C 67 % 1006,4 hPa 0,0 mm 3,6 km/h (1 Bft) S-SE 157 0 min 0 W/m 11,4 C 17,6 C 6,1 km/h (2 Bft)
27/10/2011 15:40 17,6 C 67 % 1006,5 hPa 0,0 mm 2,2 km/h (1 Bft) SO 225 0 min 0 W/m 11,4 C 17,6 C 3,6 km/h (1 Bft)
27/10/2011 15:45 17,6 C 68 % 1006,6 hPa 0,0 mm 1,4 km/h (1 Bft) S-SO 202 0 min 0 W/m 11,6 C 17,6 C 4,0 km/h (1 Bft)
27/10/2011 15:50 17,6 C 68 % 1006,7 hPa 0,0 mm 0,0 km/h (0 Bft) SO 225 0 min 0 W/m 11,6 C 17,6 C 0,0 km/h (0 Bft)
27/10/2011 15:55 17,5 C 68 % 1006,7 hPa 0,0 mm 0,0 km/h (0 Bft) SO 225 0 min 0 W/m 11,5 C 17,5 C 0,0 km/h (0 Bft)
27/10/2011 16:00 17,5 C 69 % 1006,7 hPa 0,0 mm 0,0 km/h (0 Bft) SO 225 0 min 0 W/m 11,7 C 17,5 C 0,0 km/h (0 Bft)
27/10/2011 16:05 17,4 C 69 % 1006,8 hPa 0,0 mm 0,0 km/h (0 Bft) SO 225 0 min 0 W/m 11,7 C 17,4 C 0,0 km/h (0 Bft)
27/10/2011 16:10 17,4 C 70 % 1006,8 hPa 0,0 mm 0,0 km/h (0 Bft) SO 225 0 min 0 W/m 11,9 C 17,4 C 0,0 km/h (0 Bft)
27/10/2011 16:15 17,3 C 70 % 1006,9 hPa 0,0 mm 0,0 km/h (0 Bft) SO 225 0 min 0 W/m 11,8 C 17,3 C 0,0 km/h (0 Bft)
27/10/2011 16:20 17,2 C 70 % 1007,1 hPa 0,0 mm 0,0 km/h (0 Bft) SO 225 0 min 0 W/m 11,7 C 17,2 C 4,3 km/h (1 Bft)
27/10/2011 16:25 17,1 C 71 % 1007,2 hPa 0,0 mm 1,8 km/h (1 Bft) SO 225 0 min 0 W/m 11,8 C 17,1 C 6,5 km/h (2 Bft)
27/10/2011 16:30 17,0 C 71 % 1007,4 hPa 0,0 mm 3,6 km/h (1 Bft) SO 225 0 min 0 W/m 11,7 C 17,0 C 6,8 km/h (2 Bft)
27/10/2011 16:35 16,8 C 74 % 1007,6 hPa 0,0 mm 6,1 km/h (2 Bft) S-SO 202 0 min 0 W/m 12,1 C 16,8 C 10,8 km/h (2 Bft)
27/10/2011 16:40 16,5 C 76 % 1007,8 hPa 0,0 mm 5,0 km/h (1 Bft) SO 225 0 min 0 W/m 12,3 C 16,5 C 5,0 km/h (1 Bft)
27/10/2011 16:45 16,1 C 78 % 1007,9 hPa 0,0 mm 4,3 km/h (1 Bft) SO 225 0 min 0 W/m 12,3 C 16,1 C 6,1 km/h (2 Bft)
27/10/2011 16:50 15,8 C 79 % 1008,0 hPa 0,0 mm 1,8 km/h (1 Bft) SO 225 0 min 0 W/m 12,2 C 15,8 C 2,9 km/h (1 Bft)
27/10/2011 16:55 15,6 C 79 % 1007,9 hPa 0,0 mm 4,0 km/h (1 Bft) SO 225 0 min 0 W/m 12,0 C 15,6 C 4,0 km/h (1 Bft)
27/10/2011 17:00 15,4 C 80 % 1008,0 hPa 0,0 mm 0,4 km/h (0 Bft) SO 225 0 min 0 W/m 12,0 C 15,4 C 3,2 km/h (1 Bft)
27/10/2011 17:05 15,3 C 81 % 1008,1 hPa 0,3 mm 0,0 km/h (0 Bft) SO 225 0 min 0 W/m 12,1 C 15,3 C 0,0 km/h (0 Bft)
27/10/2011 17:10 15,2 C 81 % 1008,1 hPa 0,0 mm 0,0 km/h (0 Bft) SO 225 0 min 0 W/m 12,0 C 15,2 C 0,0 km/h (0 Bft)
27/10/2011 17:15 15,2 C 81 % 1008,1 hPa 0,0 mm 0,0 km/h (0 Bft) SO 225 0 min 0 W/m 12,0 C 15,2 C 0,0 km/h (0 Bft)
27/10/2011 17:20 15,1 C 81 % 1008,1 hPa 0,0 mm 0,0 km/h (0 Bft) SO 225 0 min 0 W/m 11,9 C 15,1 C 0,0 km/h (0 Bft)
27/10/2011 17:25 15,1 C 81 % 1008,2 hPa 0,0 mm 0,0 km/h (0 Bft) SO 225 0 min 0 W/m 11,9 C 15,1 C 0,0 km/h (0 Bft)
27/10/2011 17:30 14,9 C 81 % 1008,2 hPa 0,0 mm 0,0 km/h (0 Bft) SO 225 0 min 0 W/m 11,7 C 14,9 C 0,0 km/h (0 Bft)
27/10/2011 17:35 14,9 C 81 % 1008,2 hPa 0,0 mm 0,0 km/h (0 Bft) SO 225 0 min 0 W/m 11,7 C 14,9 C 0,0 km/h (0 Bft)
27/10/2011 17:40 14,9 C 82 % 1008,2 hPa 0,0 mm 0,0 km/h (0 Bft) SO 225 0 min 0 W/m 11,9 C 14,9 C 0,0 km/h (0 Bft)
27/10/2011 17:45 14,8 C 82 % 1008,1 hPa 0,0 mm 0,0 km/h (0 Bft) SO 225 0 min 0 W/m 11,8 C 14,8 C 0,0 km/h (0 Bft)
27/10/2011 17:50 14,8 C 82 % 1008,1 hPa 0,0 mm 0,0 km/h (0 Bft) SO 225 0 min 0 W/m 11,8 C 14,8 C 0,0 km/h (0 Bft)
27/10/2011 17:55 14,8 C 83 % 1008,0 hPa 0,0 mm 0,0 km/h (0 Bft) SO 225 0 min 0 W/m 11,9 C 14,8 C 0,0 km/h (0 Bft)
27/10/2011 18:00 14,8 C 83 % 1007,9 hPa 0,0 mm 0,0 km/h (0 Bft) SO 225 0 min 0 W/m 11,9 C 14,8 C 0,0 km/h (0 Bft)
27/10/2011 18:05 14,6 C 83 % 1008,0 hPa 0,0 mm 0,0 km/h (0 Bft) SO 225 0 min 0 W/m 11,7 C 14,6 C 0,0 km/h (0 Bft)
27/10/2011 18:10 14,6 C 83 % 1008,1 hPa 0,0 mm 0,0 km/h (0 Bft) SO 225 0 min 0 W/m 11,7 C 14,6 C 0,0 km/h (0 Bft)
27/10/2011 18:15 14,6 C 83 % 1008,1 hPa 0,0 mm 0,0 km/h (0 Bft) S-SE 157 0 min 0 W/m 11,7 C 14,6 C 0,0 km/h (0 Bft)
27/10/2011 18:20 14,5 C 83 % 1008,2 hPa 0,0 mm 0,0 km/h (0 Bft) S-SE 157 0 min 0 W/m 11,6 C 14,5 C 0,0 km/h (0 Bft)
27/10/2011 18:25 14,4 C 84 % 1008,2 hPa 0,0 mm 0,4 km/h (0 Bft) E-SE 112 0 min 0 W/m 11,7 C 14,4 C 3,2 km/h (1 Bft)
27/10/2011 18:30 14,4 C 84 % 1008,3 hPa 0,0 mm 0,0 km/h (0 Bft) E-SE 112 0 min 0 W/m 11,7 C 14,4 C 0,0 km/h (0 Bft)
27/10/2011 18:35 14,3 C 84 % 1008,5 hPa 0,0 mm 0,0 km/h (0 Bft) E-SE 112 0 min 0 W/m 11,6 C 14,3 C 0,0 km/h (0 Bft)
27/10/2011 18:40 14,3 C 85 % 1008,5 hPa 0,0 mm 0,0 km/h (0 Bft) E-SE 112 0 min 0 W/m 11,8 C 14,3 C 0,0 km/h (0 Bft)
27/10/2011 18:45 14,3 C 85 % 1008,6 hPa 0,0 mm 0,0 km/h (0 Bft) E-SE 112 0 min 0 W/m 11,8 C 14,3 C 0,0 km/h (0 Bft)
27/10/2011 18:50 14,3 C 85 % 1008,6 hPa 0,0 mm 0,0 km/h (0 Bft) E-SE 112 0 min 0 W/m 11,8 C 14,3 C 3,2 km/h (1 Bft)
27/10/2011 18:55 14,2 C 85 % 1008,6 hPa 0,0 mm 0,0 km/h (0 Bft) E 90 0 min 0 W/m 11,7 C 14,2 C 0,0 km/h (0 Bft)
27/10/2011 19:00 14,2 C 85 % 1008,6 hPa 0,0 mm 0,0 km/h (0 Bft) E 90 0 min 0 W/m 11,7 C 14,2 C 0,0 km/h (0 Bft)
27/10/2011 19:05 14,1 C 85 % 1008,6 hPa 0,0 mm 0,0 km/h (0 Bft) E 90 0 min 0 W/m 11,6 C 14,1 C 1,4 km/h (1 Bft)
27/10/2011 19:10 14,1 C 85 % 1008,8 hPa 0,0 mm 0,0 km/h (0 Bft) E 90 0 min 0 W/m 11,6 C 14,1 C 0,0 km/h (0 Bft)
27/10/2011 19:15 14,1 C 85 % 1008,8 hPa 0,0 mm 0,0 km/h (0 Bft) E 90 0 min 0 W/m 11,6 C 14,1 C 0,0 km/h (0 Bft)
27/10/2011 19:20 14,1 C 86 % 1009,0 hPa 0,0 mm 0,0 km/h (0 Bft) E 90 0 min 0 W/m 11,8 C 14,1 C 0,0 km/h (0 Bft)
27/10/2011 19:25 14,0 C 86 % 1008,9 hPa 0,0 mm 0,0 km/h (0 Bft) E 90 0 min 0 W/m 11,7 C 14,0 C 0,0 km/h (0 Bft)
27/10/2011 19:30 14,0 C 86 % 1008,9 hPa 0,0 mm 0,0 km/h (0 Bft) E 90 0 min 0 W/m 11,7 C 14,0 C 0,0 km/h (0 Bft)
27/10/2011 19:35 14,0 C 86 % 1008,9 hPa 0,0 mm 0,0 km/h (0 Bft) E 90 0 min 0 W/m 11,7 C 14,0 C 0,0 km/h (0 Bft)
27/10/2011 19:40 13,9 C 86 % 1009,0 hPa 0,0 mm 0,0 km/h (0 Bft) E 90 0 min 0 W/m 11,6 C 13,9 C 0,0 km/h (0 Bft)
27/10/2011 19:45 13,9 C 86 % 1009,1 hPa 0,0 mm 0,0 km/h (0 Bft) E 90 0 min 0 W/m 11,6 C 13,9 C 0,0 km/h (0 Bft)
27/10/2011 19:50 13,9 C 86 % 1009,1 hPa 0,0 mm 0,0 km/h (0 Bft) E 90 0 min 0 W/m 11,6 C 13,9 C 0,0 km/h (0 Bft)
27/10/2011 19:55 13,8 C 86 % 1009,1 hPa 0,0 mm 0,0 km/h (0 Bft) E 90 0 min 0 W/m 11,5 C 13,8 C 0,0 km/h (0 Bft)
27/10/2011 20:00 13,8 C 87 % 1009,2 hPa 0,0 mm 0,0 km/h (0 Bft) E 90 0 min 0 W/m 11,7 C 13,8 C 0,0 km/h (0 Bft)
27/10/2011 20:05 13,8 C 87 % 1009,2 hPa 0,0 mm 0,0 km/h (0 Bft) E 90 0 min 0 W/m 11,7 C 13,8 C 0,0 km/h (0 Bft)
27/10/2011 20:10 13,8 C 87 % 1009,2 hPa 0,0 mm 0,0 km/h (0 Bft) E 90 0 min 0 W/m 11,7 C 13,8 C 3,2 km/h (1 Bft)
27/10/2011 20:15 13,8 C 87 % 1009,2 hPa 0,0 mm 1,1 km/h (1 Bft) E 90 0 min 0 W/m 11,7 C 13,8 C 4,3 km/h (1 Bft)
27/10/2011 20:20 13,8 C 87 % 1009,3 hPa 0,0 mm 0,0 km/h (0 Bft) E-SE 112 0 min 0 W/m 11,7 C 13,8 C 0,0 km/h (0 Bft)
27/10/2011 20:25 13,8 C 87 % 1009,4 hPa 0,0 mm 0,0 km/h (0 Bft) E-SE 112 0 min 0 W/m 11,7 C 13,8 C 0,0 km/h (0 Bft)
27/10/2011 20:30 13,8 C 87 % 1009,5 hPa 0,0 mm 0,0 km/h (0 Bft) E-SE 112 0 min 0 W/m 11,7 C 13,8 C 0,0 km/h (0 Bft)
27/10/2011 20:35 13,8 C 87 % 1009,5 hPa 0,0 mm 0,0 km/h (0 Bft) E-SE 112 0 min 0 W/m 11,7 C 13,8 C 0,0 km/h (0 Bft)
27/10/2011 20:40 13,8 C 87 % 1009,6 hPa 0,0 mm 1,4 km/h (1 Bft) E 90 0 min 0 W/m 11,7 C 13,8 C 3,6 km/h (1 Bft)
27/10/2011 20:45 13,8 C 88 % 1009,7 hPa 0,0 mm 0,4 km/h (0 Bft) E 90 0 min 0 W/m 11,8 C 13,8 C 0,4 km/h (0 Bft)
27/10/2011 20:50 13,8 C 88 % 1009,8 hPa 0,0 mm 0,0 km/h (0 Bft) E 90 0 min 0 W/m 11,8 C 13,8 C 0,0 km/h (0 Bft)
27/10/2011 20:55 13,8 C 88 % 1009,8 hPa 0,0 mm 0,0 km/h (0 Bft) E-SE 112 0 min 0 W/m 11,8 C 13,8 C 0,0 km/h (0 Bft)
27/10/2011 21:00 13,8 C 88 % 1009,9 hPa 0,0 mm 0,0 km/h (0 Bft) E-SE 112 0 min 0 W/m 11,8 C 13,8 C 3,2 km/h (1 Bft)
27/10/2011 21:05 13,8 C 87 % 1009,9 hPa 0,0 mm 1,4 km/h (1 Bft) E-SE 112 0 min 0 W/m 11,7 C 13,8 C 4,3 km/h (1 Bft)
27/10/2011 21:10 13,8 C 88 % 1009,9 hPa 0,0 mm 1,8 km/h (1 Bft) E 90 0 min 0 W/m 11,8 C 13,8 C 2,9 km/h (1 Bft)
27/10/2011 21:15 13,8 C 88 % 1009,9 hPa 0,0 mm 1,1 km/h (1 Bft) E 90 0 min 0 W/m 11,8 C 13,8 C 4,0 km/h (1 Bft)
27/10/2011 21:20 13,8 C 88 % 1010,1 hPa 0,0 mm 0,0 km/h (0 Bft) E-NE 67 0 min 0 W/m 11,8 C 13,8 C 0,0 km/h (0 Bft)
27/10/2011 21:25 13,8 C 88 % 1010,1 hPa 0,0 mm 0,0 km/h (0 Bft) E 90 0 min 0 W/m 11,8 C 13,8 C 0,0 km/h (0 Bft)
27/10/2011 21:30 13,8 C 88 % 1010,1 hPa 0,0 mm 1,1 km/h (1 Bft) E-SE 112 0 min 0 W/m 11,8 C 13,8 C 4,3 km/h (1 Bft)
27/10/2011 21:35 13,8 C 88 % 1010,2 hPa 0,0 mm 1,1 km/h (1 Bft) E 90 0 min 0 W/m 11,8 C 13,8 C 1,1 km/h (1 Bft)
27/10/2011 21:40 13,8 C 88 % 1010,2 hPa 0,0 mm 3,2 km/h (1 Bft) E 90 0 min 0 W/m 11,8 C 13,8 C 3,2 km/h (1 Bft)
27/10/2011 21:45 13,8 C 88 % 1010,3 hPa 0,0 mm 3,2 km/h (1 Bft) E 90 0 min 0 W/m 11,8 C 13,8 C 7,6 km/h (2 Bft)
27/10/2011 21:50 13,9 C 88 % 1010,4 hPa 0,0 mm 0,0 km/h (0 Bft) E-SE 112 0 min 0 W/m 11,9 C 13,9 C 2,9 km/h (1 Bft)
27/10/2011 21:55 13,9 C 88 % 1010,4 hPa 0,0 mm 3,2 km/h (1 Bft) SE 135 0 min 0 W/m 11,9 C 13,9 C 4,3 km/h (1 Bft)
27/10/2011 22:00 13,9 C 88 % 1010,4 hPa 0,0 mm 1,1 km/h (1 Bft) SE 135 0 min 0 W/m 11,9 C 13,9 C 3,6 km/h (1 Bft)
27/10/2011 22:05 13,9 C 88 % 1010,4 hPa 0,0 mm 3,6 km/h (1 Bft) E-SE 112 0 min 0 W/m 11,9 C 13,9 C 4,3 km/h (1 Bft)
27/10/2011 22:10 13,9 C 88 % 1010,4 hPa 0,0 mm 5,0 km/h (1 Bft) E-SE 112 0 min 0 W/m 11,9 C 13,9 C 7,9 km/h (2 Bft)
27/10/2011 22:15 14,0 C 88 % 1010,5 hPa 0,0 mm 3,6 km/h (1 Bft) E-SE 112 0 min 0 W/m 12,0 C 14,0 C 4,0 km/h (1 Bft)
27/10/2011 22:20 14,0 C 88 % 1010,5 hPa 0,0 mm 3,6 km/h (1 Bft) E-SE 112 0 min 0 W/m 12,0 C 14,0 C 6,8 km/h (2 Bft)
27/10/2011 22:25 14,0 C 88 % 1010,6 hPa 0,0 mm 4,0 km/h (1 Bft) E 90 0 min 0 W/m 12,0 C 14,0 C 9,4 km/h (2 Bft)
27/10/2011 22:30 13,9 C 88 % 1010,7 hPa 0,0 mm 3,6 km/h (1 Bft) E-NE 67 0 min 0 W/m 11,9 C 13,9 C 6,8 km/h (2 Bft)
27/10/2011 22:35 13,9 C 88 % 1010,8 hPa 0,0 mm 0,7 km/h (0 Bft) E-SE 112 0 min 0 W/m 11,9 C 13,9 C 4,3 km/h (1 Bft)
27/10/2011 22:40 13,8 C 88 % 1010,9 hPa 0,0 mm 0,7 km/h (0 Bft) E-SE 112 0 min 0 W/m 11,8 C 13,8 C 0,7 km/h (0 Bft)
27/10/2011 22:45 13,8 C 88 % 1011,0 hPa 0,0 mm 1,4 km/h (1 Bft) E-SE 112 0 min 0 W/m 11,8 C 13,8 C 6,5 km/h (2 Bft)
_ Min-Heure 02:20 03:02 07:20 - 21:50 - - - - 02:20 02:20 21:25
Minimum _ 12,0 C 57 % 1003,9 hPa - 0,0 km/h (0 Bft) - - - - 3,8 C 12,0 C 0,0 km/h (0 Bft)
_ Max-Heure 14:25 22:45 22:45 17:05 04:55 - - 22:45 22:45 16:45 14:25 06:00
Maximum _ 17,8 C 88 % 1011,0 hPa 0,3 mm 20,2 km/h
SE (4 Bft)
- - 0 min 0 W/m 12,3 C 17,8 C 29,2 km/h
S-SE (5 Bft)
Moyenne _ 14,6 C 70 % 1006,7 hPa #0,3 mm 6,6 km/h (2 Bft) S-SE - #0 min. 0 W/m 9,1 C 14,6 C 9,9 km/h (2 Bft)
Saint Bonnet de Bellac- Haute Vienne - France